CST,Max TemperatureF,Mean TemperatureF,Min TemperatureF,Max Dew PointF,MeanDew PointF,Min DewpointF,Max Humidity, Mean Humidity, Min Humidity, Max Sea Level PressureIn, Mean Sea Level PressureIn, Min Sea Level PressureIn, Max VisibilityMiles, Mean VisibilityMiles, Min VisibilityMiles, Max Wind SpeedMPH, Mean Wind SpeedMPH, Max Gust SpeedMPH,PrecipitationIn, CloudCover, Events, WindDirDegrees
2013-12-1,45,34,22,28,25,20,89,75,48,30.16,30.00,29.75,10,10,7,12,3,,0.00,2,,175
2013-12-2,57,43,29,32,29,25,86,65,34,29.74,29.57,29.50,10,10,10,14,7,,0.00,2,,249
2013-12-3,36,28,20,31,25,16,93,89,79,29.79,29.66,29.55,10,4,0,20,12,25,0.00,8,Fog-Snow,356
2013-12-4,18,12,5,14,6,-3,84,76,69,30.07,29.83,29.72,10,7,1,31,22,39,0.00,6,Snow,313
2013-12-5,7,2,-5,-3,-8,-14,70,62,52,30.38,30.25,30.08,10,10,10,24,17,31,0.00,0,,304
2013-12-6,1,-6,-12,-10,-15,-20,74,66,58,30.61,30.50,30.38,10,10,10,20,10,,0.00,0,,298
2013-12-7,7,-4,-15,1,-10,-22,78,70,55,30.61,30.48,30.25,10,9,2,14,5,18,0.00,3,Snow,138
2013-12-8,13,6,-1,6,1,-11,83,76,63,30.24,30.06,29.96,10,6,2,14,7,17,0.00,5,Snow,185
2013-12-9,25,10,-5,9,-4,-13,74,59,44,30.19,30.07,29.92,10,10,10,20,10,25,0.00,1,,254
2013-12-10,32,20,7,25,14,3,85,69,52,30.33,30.07,29.95,10,10,5,28,13,34,0.00,6,Snow,270
2013-12-11,22,8,-7,14,2,-13,81,66,49,30.54,30.41,30.28,10,10,4,18,11,25,0.00,1,Snow,241
2013-12-12,42,27,12,22,15,6,83,65,41,30.29,30.16,29.99,10,10,10,13,6,,0.01,0,,233
2013-12-13,23,18,14,18,14,11,91,84,76,30.17,29.98,29.89,10,9,3,16,7,21,0.00,4,,10
2013-12-14,25,17,9,20,13,6,89,84,76,30.21,30.14,30.02,10,8,3,13,7,,0.00,6,Snow,313
2013-12-15,43,29,15,30,22,13,89,80,59,30.02,29.93,29.87,10,9,5,10,3,,0.00,4,,288
2013-12-16,41,36,30,30,28,25,83,71,58,30.14,30.01,29.90,10,10,10,15,9,18,0.00,4,,284
2013-12-17,39,32,26,26,21,15,86,65,38,30.30,30.15,29.90,10,10,10,14,8,18,0.00,0,,257
2013-12-18,52,42,31,30,25,22,79,61,37,29.89,29.75,29.69,10,10,10,13,8,,0.00,0,,276
2013-12-19,33,20,6,27,13,1,91,82,74,30.00,29.89,29.80,10,8,2,22,14,28,0.00,7,Snow,7
2013-12-20,16,11,6,9,5,1,82,76,72,29.99,29.90,29.77,10,10,7,18,12,22,0.00,7,Snow,322
2013-12-21,24,17,10,14,9,6,85,79,64,29.95,29.80,29.69,10,10,10,14,6,18,0.00,1,Snow,2
2013-12-22,16,10,2,8,3,-4,85,74,62,30.38,30.14,29.95,10,10,5,20,13,25,0.00,4,Snow,325
2013-12-23,10,2,-5,-2,-7,-12,78,66,51,30.53,30.43,30.30,10,10,10,15,9,21,0.00,2,,314
2013-12-24,36,22,8,28,15,-2,90,78,56,30.28,30.08,29.93,10,9,2,28,17,36,0.00,5,Snow,219
2013-12-25,37,29,21,25,21,16,91,72,50,30.29,30.20,30.13,10,10,10,25,12,33,0.00,1,,271
2013-12-26,48,36,23,26,21,17,85,64,34,30.19,30.11,30.03,10,10,10,20,8,29,0.00,0,,266
2013-12-27,58,40,23,28,25,19,85,59,29,30.19,30.08,29.99,10,10,10,13,8,17,0.00,0,,232
2013-12-28,55,32,9,31,21,1,82,64,28,30.26,29.93,29.74,10,9,4,39,14,52,0.00,3,Snow,276
2013-12-29,13,6,0,1,-6,-14,72,56,38,30.40,30.27,30.05,10,10,10,31,19,40,0.00,1,,314
2013-12-30,37,26,14,29,13,-1,84,67,47,30.22,30.06,29.95,10,10,10,33,14,43,0.00,6,Snow,256
2013-12-31,31,20,10,20,11,4,85,76,60,30.16,30.05,29.93,10,10,10,15,7,22,0.00,4,Snow,99